SCP
-0 -0 -0 -0 -0 -0 -0 -0 -0 -0 -0 0 0 0 0 -0 0 0 0 0 0 0 0 0 0 0 0 0 0 0 0 0 0 0 0 0 0 0 0 0 0 0 0 0 0
-0 -0 -0 -0 -0 -0 -0 -0 -0 -0 0 -0 0 0 0 0 0 0 0 0 0 0 0 0 0 0 0 0 0 0 0 0 0 0 0 0 0 0 0 0 0 0 0 0 0
0 0 -0 -0 -0 -0 -0 -0 -0 -0 0 -0 0 0 0 0 0 0 0 0 0 0 0 0 0 0 0 0 0 0 0 0 0 0 0 0 0 0 0 0 0 0 0 0 0
0 0 0 0 -0 -0 -0 -0 -0 -0 0 -0 0 0 0 0 0 0 0 0 0 0 0 0 0 0 0 0 0 0 0 0 0 0 0 0 0 0 0 0 0 0 0 0 0
0 0 0 0 0 -0 -0 -0 0 0 -0 -0 -0 0 0 0 0 0 0 0 0 0 0 0 0 0 0 0 0 0 0 0 0 0 0 0 0 0 0 0 0 0 0 0 0
0 0 0 0 0 0 0 0 0 0 -0 -0 0 0 0 0 0 0 0 0 0 0 0 0 0 0 0 0 0 0 0 0 0 0 0 0 0 0 0 0 0 0 0 0 0
0 0 0 0 0 0 0 0 0 0 -0 0 0 0 0 0 0 0 0 0 0 0 0 0 0 0 0 0 0 0 0 0 0 0 0 0 0 0 0 0 0 0 0 0 0
0 0 0 0 0 0 0 0 0 0 0 0 0 0 0 0 0 0 0 0 0 0 0 0 0 0 0 0 0 0 0 0 0 0 0 0 0 0 0 0 0 0 0 0 0
0 0 0 0 0 0 0 0 0 -0 0 0 0 0 0 0 0 0 0 0 0 0 0 0 0 0 0 0 0 0 0 0 0 0 0 0 0 0 0 0 0 0 0 0 0
0 0 0 0 0 0 0 0 -0 0 0 0 0 0 0 0 0 0 0 0 0 0 0 0 0 0 0 0 0 0 0 0 0 0 0 0 0 0 0 0 0 0 0 0 0
0 0 0 0 0 0 0 -0 0 0 0 0 0 0 0 0 0 0 0 0 0 0 0 0 0 0 0 0 0 0 0 0 0 0 0 0 0 0 0 0 0 0 0 0 0
0 0 0 0 0 0 0 -0 0 0 0 0 0 0 0 0 0 0 0 0 0 0 0 0 0 0 0 0 0 0 0 0 0 0 0 0 0 0 0 0 0 0 0 0 0
0 0 0 0 0 0 0 0 0 0 0 0 0 0 0 0 0 0 0 0 0 0 0 0 0 0 0 0 0 0 0 0 0 0 0 0 0 0 0 0 0 0 0 0 0
0 0 0 0 0 0 0 0 0 0 0 0 0 0 0 0 0 0 0 0 0 0 0 0 0 0 0 0 0 0 0 0 0 0 0 0 0 0 0 0 0 0 0 0 0
0 0 0 0 0 0 0 0 0 0 0 0 0 0 0 0 0 0 0 0 0 0 0 0 0 0 0 0 0 0 0 0 0 0 0 0 0 0 0 0 0 0 0 0 0
0 0 0 0 0 0 0 0 0 0 0 0 0 0 0 0 0 0 0 0 0 0 0 0 0 0 0 0 0 0 0 0 0 0 0 0 0 0 0 0 0 0 0 0 0
0 0 0 0 0 0 0 0 0 0 0 0 0 0 0 0 0 0 0 0 0 0 0 0 0 0 0 0 0 0 0 0 0 0 0 0 0 0 0 0 0 0 0 0 0
0 0 0 0 0 0 0 0 0 0 0 0 0 0 0 0 0 0 0 0 0 0 0 0 0 0 0 0 0 0 0 0 0 0 0 0 0 0 0 0 0 0 0 0 0
0 0 0 0 0 0 0 0 0 0 0 0 0 0 0 0 0 0 0 0 0 0 0 0 0 0 0 0 0 0 0 0 0 0 0 0 0 0 0 0 0 0 0 0 0
0 0 0 0 0 0 0 0 0 0 0 0 0 0 0 0 0 0 0 0 0 0 0 0 0 0 0 0 0 0 0 0 0 0 0 0 0 0 0 0 0 0 0 0 0
0 0 0 0 0 0 0 0 0 0 0 0 0 0 0 0 0 0 0 0 0 0 0 0 0 0 0 0 0 0 0 0 0 0 0 0 0 0 0 0 0 0 0 0 0
0 0 0 0 0 0 0 0 0 0 0 0 0 0 0 0 0 0 0 0 0 0 0 0 0 0 0 0 0 0 0 0 0 0 0 0 0 0 0 0 0 0 0 0 0
0 0 0 0 0 0 0 0 0 0 0 0 0 0 0 0 0 0 0 0 0 0 0 0 0 0 0 0 0 0 0 0 0 0 0 0 0 0 0 0 0 0 0 0 0
0 0 0 0 0 0 0 0 0 0 0 0 0 0 0 0 0 0 0 0 0 0 0 0 0 0 0 0 0 0 0 0 0 0 0 0 0 0 0 0 0 0 0 0 0
0 0 0 0 0 0 0 0 0 0 0 0 0 0 0 0 0 0 0 0 0 0 0 0 0 0 0 0 0 0 0 0 0 0 0 0 0 0 0 0 0 0 0 0 0
0 0 0 0 0 0 0 0 0 0 0 0 0 0 0 0 0 0 0 0 0 0 0 0 0 0 0 0 0 0 0 0 0 0 0 0 0 0 0 0 0 0 0 0 0
0 0 0 0 0 0 0 0 0 0 0 0 0 0 0 0 0 0 0 0 0 0 0 0 0 0 0 0 0 0 0 0 0 0 0 0 0 0 0 0 0 0 0 0 0
Wind_Speed_500mb
23 25 29 33 36 37 38 41 44 47 49 50 42 14 15 25 27 17 25 21 20 17 15 13 13 11 9 10 7 3 8 2 3 6 5 4 5 11 13 23 20 16 22 32 16
24 26 28 31 34 35 36 37 39 43 46 47 41 13 7 10 16 27 22 20 20 22 21 17 19 15 5 7 4 9 7 4 1 6 6 1 7 21 14 26 22 41 35 24 12
23 26 28 29 32 33 32 34 36 40 44 44 37 12 7 2 8 14 20 19 20 21 25 20 20 9 5 6 7 2 6 5 3 9 8 9 4 8 45 5 26 38 34 20 8
19 23 26 29 30 32 32 30 32 37 40 42 32 8 8 5 1 3 14 15 15 17 19 18 19 8 5 7 5 7 4 4 11 5 10 10 12 10 3 10 36 42 30 20 9
21 22 23 26 28 31 31 31 30 33 38 37 29 7 2 1 5 6 3 10 12 12 17 20 21 11 4 8 10 1 8 7 2 6 10 12 7 16 26 38 40 35 26 16 11
19 24 26 27 27 29 31 30 31 33 36 37 23 11 7 6 9 8 5 3 9 12 17 16 10 13 2 5 2 6 11 24 21 8 14 16 9 5 30 43 40 31 23 17 12
24 24 27 31 31 31 32 31 33 34 36 36 18 11 11 12 13 9 5 2 7 12 14 13 10 9 5 5 6 9 11 13 10 11 10 24 2 16 39 50 43 36 31 24 12
29 29 30 31 34 35 35 34 34 33 37 27 17 9 9 12 16 12 5 4 8 10 11 8 12 5 2 6 3 4 5 6 6 7 4 12 18 9 54 60 49 41 36 29 19
34 33 34 34 35 38 38 38 35 31 27 14 15 8 8 13 20 20 13 10 10 6 11 6 6 4 1 6 8 10 7 9 14 19 4 12 12 11 58 58 52 50 43 32 25
35 36 35 36 36 39 39 40 26 19 9 11 7 6 12 10 14 15 15 11 8 7 5 4 4 6 7 7 7 9 9 11 13 6 9 14 26 17 55 56 56 54 45 36 27
37 36 35 35 35 36 40 38 14 6 13 25 24 21 24 26 29 25 18 12 10 4 3 5 7 12 16 12 8 5 9 14 11 13 11 20 32 26 52 45 46 57 52 41 32
37 36 35 32 31 28 26 13 9 14 23 33 44 41 38 33 13 23 17 14 10 7 0 11 8 10 5 6 8 11 12 16 18 9 5 19 21 18 38 59 73 66 60 48 37
38 35 33 30 28 24 15 12 14 18 11 14 14 13 9 17 13 19 18 13 9 8 10 10 8 12 7 7 9 9 11 12 17 8 11 16 15 35 8 43 48 55 62 52 43
41 35 34 27 23 18 13 11 14 15 7 12 8 8 12 12 7 17 18 10 5 14 9 11 2 9 11 10 14 12 5 11 9 8 6 8 17 7 12 30 26 49 62 53 42
42 38 33 25 15 15 14 12 11 5 5 9 8 13 15 12 9 11 16 10 11 12 9 15 12 11 12 13 15 15 1 8 7 9 7 12 10 11 7 17 29 44 66 53 43
41 42 33 29 28 26 19 13 2 8 14 7 11 10 9 10 8 13 9 8 5 7 3 12 2 9 13 4 1 3 6 8 6 5 3 13 17 10 12 19 17 41 58 57 46
46 43 32 30 20 22 20 11 6 9 6 10 12 11 8 11 8 12 11 10 12 2 7 4 8 1 6 5 6 6 9 8 10 4 15 9 7 32 15 15 22 45 60 61 48
46 41 35 32 28 20 22 5 15 15 15 3 7 5 13 14 7 9 8 7 9 5 5 7 13 16 9 12 13 11 13 9 12 8 31 4 15 12 9 18 42 49 65 57 46
36 37 39 35 33 29 22 12 20 17 14 19 6 8 10 8 6 9 15 13 16 20 17 13 13 4 1 3 8 9 10 3 3 4 6 10 14 11 8 6 18 41 59 54 43
37 27 42 32 33 33 6 35 16 18 11 8 23 19 18 13 13 14 16 11 11 23 9 9 12 3 3 2 0 8 7 5 2 6 13 13 19 24 15 20 16 22 46 52 43
33 17 21 43 35 26 19 18 19 33 25 15 17 14 15 16 17 14 15 8 15 11 14 12 10 5 7 15 20 2 7 7 3 9 9 8 33 13 30 35 37 33 58 61 47
30 9 29 52 24 16 30 15 15 18 57 14 9 18 22 19 15 17 26 23 40 29 21 16 11 12 26 3 4 5 20 24 10 13 13 5 33 4 17 23 48 50 60 56 45
24 29 23 63 16 25 10 14 30 15 21 19 23 17 13 15 10 23 30 21 48 26 23 18 8 4 13 3 4 12 13 20 2 4 44 16 29 1 2 14 42 48 64 53 38
27 9 26 55 50 21 27 28 27 37 45 20 15 15 11 17 26 15 10 10 28 25 26 41 13 17 33 26 11 13 17 19 34 26 40 55 73 57 25 16 14 33 52 45 41
47 22 33 14 38 40 26 16 46 31 26 58 31 40 27 26 29 30 17 2 3 12 14 17 27 18 43 40 9 30 48 25 44 54 38 77 64 60 52 26 40 72 60 51 41
46 27 27 10 26 49 55 69 53 23 24 43 47 30 49 48 44 32 45 14 20 4 15 7 17 11 30 19 16 40 55 47 50 61 53 71 78 79 66 21 30 51 60 51 42
78 72 62 40 24 30 57 67 56 44 47 61 44 40 44 55 83 89 43 31 23 28 25 18 12 8 40 7 7 28 54 52 43 49 41 45 75 62 37 16 33 52 67 59 43
Wind_Direction_500mb
11 12 11 11 14 18 19 19 17 17 17 19 18 72 74 61 58 80 65 58 50 36 21 23 13 13 26 23 42 67 60 29 334 142 159 132 112 66 116 116 77 114 120 124 134
358 2 4 5 6 8 12 14 13 11 12 15 15 45 86 50 52 60 56 54 47 37 28 29 23 28 32 4 19 78 101 207 352 136 154 127 144 150 105 100 99 107 119 140 180
348 351 352 357 358 1 4 4 5 4 4 7 13 41 82 37 21 34 54 60 48 31 22 22 11 16 32 340 355 89 167 191 112 127 163 164 129 155 136 187 179 156 145 168 172
333 340 343 344 349 353 355 356 355 353 353 355 7 30 67 77 136 82 62 61 41 27 16 7 11 12 37 341 341 347 296 224 173 179 157 163 168 84 225 152 161 163 172 173 161
315 322 329 334 337 341 346 348 351 346 341 344 352 346 229 204 165 180 135 50 34 17 4 6 26 13 7 329 332 176 316 320 247 207 133 164 199 151 133 145 156 165 173 170 143
299 307 314 320 326 329 334 338 341 341 336 334 335 317 237 233 209 204 218 265 1 355 1 7 19 1 323 300 318 314 290 291 289 272 182 139 170 141 174 162 162 176 184 192 170
296 298 303 310 316 321 324 330 333 334 327 326 319 287 249 263 204 197 193 239 326 344 350 357 353 0 310 314 312 304 326 322 249 205 208 127 326 229 188 176 175 181 183 182 175
296 297 300 304 310 316 321 324 329 326 316 309 310 269 253 225 207 207 214 274 312 321 325 329 336 11 167 295 349 5 56 349 281 177 203 158 257 236 184 180 183 180 177 172 170
294 297 300 305 310 314 319 322 328 320 305 300 291 249 249 222 223 227 245 278 295 288 303 296 341 61 77 68 5 5 245 234 310 211 136 185 263 222 185 191 188 189 183 179 172
290 295 300 305 310 314 320 326 325 304 233 316 238 264 228 227 219 236 247 254 257 273 301 306 53 54 26 72 258 252 284 274 241 265 199 249 261 190 195 198 198 196 191 188 178
284 289 294 300 307 315 324 348 350 276 219 279 260 248 259 247 265 255 233 228 194 236 23 349 61 243 250 211 198 209 236 230 254 255 223 233 246 206 201 207 209 203 195 191 188
279 285 288 292 299 309 323 347 343 310 297 271 260 260 257 259 256 218 212 195 174 200 102 5 255 226 186 225 238 232 261 265 285 240 210 269 248 227 192 210 210 200 195 191 187
271 276 279 285 289 294 287 310 323 329 286 281 245 251 231 217 222 210 200 186 166 165 201 170 256 119 171 232 257 231 213 252 241 337 290 284 248 242 219 220 213 206 199 197 194
263 266 271 275 284 257 266 292 312 336 48 265 236 214 189 189 255 196 193 193 188 194 192 231 258 186 221 232 174 276 227 256 281 355 260 348 294 258 193 223 204 193 201 195 192
256 258 261 257 234 244 263 276 304 345 347 253 190 175 185 183 151 200 191 188 193 188 132 252 178 191 218 225 165 237 188 263 264 259 349 230 255 241 142 244 211 197 200 192 194
252 257 253 251 243 244 245 246 279 54 250 246 162 184 159 197 197 163 184 186 166 153 277 248 226 190 210 139 177 32 333 299 47 99 256 233 196 221 192 218 196 203 196 192 189
251 255 250 240 236 230 223 177 40 179 279 223 207 179 187 187 203 179 177 179 190 273 269 334 222 67 162 128 17 81 56 312 334 344 237 180 232 258 234 225 196 195 187 188 188
248 250 249 235 227 214 191 70 204 222 228 63 144 106 184 160 223 166 144 234 231 116 111 212 302 176 180 198 186 177 177 168 262 251 293 350 245 252 290 302 242 191 180 182 187
239 242 245 232 217 212 201 216 195 193 202 158 84 169 227 216 203 153 200 203 213 171 187 180 265 120 241 174 159 179 187 152 192 126 7 238 277 275 81 48 112 152 173 185 192
230 240 240 235 214 206 186 228 216 203 147 149 184 178 191 204 173 180 188 204 213 190 167 215 288 209 174 163 285 167 154 69 9 288 274 263 274 248 199 207 186 183 191 194 199
219 235 221 220 204 194 220 225 223 238 210 171 202 202 201 185 194 195 215 235 203 172 160 145 179 185 120 208 183 158 214 199 200 162 228 295 283 207 192 203 192 201 197 199 202
206 232 193 190 181 219 227 193 233 213 229 250 199 200 188 182 204 210 213 204 188 157 169 200 169 202 211 237 279 244 208 186 191 223 235 218 260 169 206 197 195 203 198 200 205
208 225 203 183 215 215 236 234 237 190 203 216 230 194 195 202 248 213 242 210 182 160 172 179 213 315 312 359 331 224 211 218 358 299 248 239 266 25 181 155 198 188 196 199 203
195 217 192 204 224 225 215 230 224 221 231 206 204 183 163 222 219 256 222 221 196 205 205 158 187 181 240 238 137 218 200 203 213 239 255 243 263 261 253 203 202 196 201 201 207
196 216 199 203 220 225 224 238 224 224 211 209 240 224 208 235 225 232 225 237 272 210 178 172 236 194 247 260 194 263 260 206 218 238 237 261 261 265 266 235 204 208 202 199 201
209 208 185 207 201 207 220 233 232 221 186 216 226 206 219 230 217 231 224 178 204 163 173 193 246 154 258 244 223 259 264 254 245 251 249 254 267 266 277 241 178 186 190 190 201
221 232 219 220 202 192 222 234 235 223 236 229 225 229 231 227 229 236 231 210 208 184 184 168 184 139 256 119 359 273 252 239 247 243 233 245 246 263 261 194 178 181 188 191 202
Wind_Speed_850mb
23 25 29 33 36 37 38 41 44 47 49 50 42 14 15 25 27 17 25 21 20 17 15 13 13 11 9 10 7 3 8 2 3 6 5 4 5 11 13 23 20 16 22 32 16
24 26 28 31 34 35 36 37 39 43 46 47 41 13 7 10 16 27 22 20 20 22 21 17 19 15 5 7 4 9 7 4 1 6 6 1 7 21 14 26 22 41 35 24 12
23 26 28 29 32 33 32 34 36 40 44 44 37 12 7 2 8 14 20 19 20 21 25 20 20 9 5 6 7 2 6 5 3 9 8 9 4 8 45 5 26 38 34 20 8
19 23 26 29 30 32 32 30 32 37 40 42 32 8 8 5 1 3 14 15 15 17 19 18 19 8 5 7 5 7 4 4 11 5 10 10 12 10 3 10 36 42 30 20 9
21 22 23 26 28 31 31 31 30 33 38 37 29 7 2 1 5 6 3 10 12 12 17 20 21 11 4 8 10 1 8 7 2 6 10 12 7 16 26 38 40 35 26 16 11
19 24 26 27 27 29 31 30 31 33 36 37 23 11 7 6 9 8 5 3 9 12 17 16 10 13 2 5 2 6 11 24 21 8 14 16 9 5 30 43 40 31 23 17 12
24 24 27 31 31 31 32 31 33 34 36 36 18 11 11 12 13 9 5 2 7 12 14 13 10 9 5 5 6 9 11 13 10 11 10 24 2 16 39 50 43 36 31 24 12
29 29 30 31 34 35 35 34 34 33 37 27 17 9 9 12 16 12 5 4 8 10 11 8 12 5 2 6 3 4 5 6 6 7 4 12 18 9 54 60 49 41 36 29 19
34 33 34 34 35 38 38 38 35 31 27 14 15 8 8 13 20 20 13 10 10 6 11 6 6 4 1 6 8 10 7 9 14 19 4 12 12 11 58 58 52 50 43 32 25
35 36 35 36 36 39 39 40 26 19 9 11 7 6 12 10 14 15 15 11 8 7 5 4 4 6 7 7 7 9 9 11 13 6 9 14 26 17 55 56 56 54 45 36 27
37 36 35 35 35 36 40 38 14 6 13 25 24 21 24 26 29 25 18 12 10 4 3 5 7 12 16 12 8 5 9 14 11 13 11 20 32 26 52 45 46 57 52 41 32
37 36 35 32 31 28 26 13 9 14 23 33 44 41 38 33 13 23 17 14 10 7 0 11 8 10 5 6 8 11 12 16 18 9 5 19 21 18 38 59 73 66 60 48 37
38 35 33 30 28 24 15 12 14 18 11 14 14 13 9 17 13 19 18 13 9 8 10 10 8 12 7 7 9 9 11 12 17 8 11 16 15 35 8 43 48 55 62 52 43
41 35 34 27 23 18 13 11 14 15 7 12 8 8 12 12 7 17 18 10 5 14 9 11 2 9 11 10 14 12 5 11 9 8 6 8 17 7 12 30 26 49 62 53 42
42 38 33 25 15 15 14 12 11 5 5 9 8 13 15 12 9 11 16 10 11 12 9 15 12 11 12 13 15 15 1 8 7 9 7 12 10 11 7 17 29 44 66 53 43
41 42 33 29 28 26 19 13 2 8 14 7 11 10 9 10 8 13 9 8 5 7 3 12 2 9 13 4 1 3 6 8 6 5 3 13 17 10 12 19 17 41 58 57 46
46 43 32 30 20 22 20 11 6 9 6 10 12 11 8 11 8 12 11 10 12 2 7 4 8 1 6 5 6 6 9 8 10 4 15 9 7 32 15 15 22 45 60 61 48
46 41 35 32 28 20 22 5 15 15 15 3 7 5 13 14 7 9 8 7 9 5 5 7 13 16 9 12 13 11 13 9 12 8 31 4 15 12 9 18 42 49 65 57 46
36 37 39 35 33 29 22 12 20 17 14 19 6 8 10 8 6 9 15 13 16 20 17 13 13 4 1 3 8 9 10 3 3 4 6 10 14 11 8 6 18 41 59 54 43
37 27 42 32 33 33 6 35 16 18 11 8 23 19 18 13 13 14 16 11 11 23 9 9 12 3 3 2 0 8 7 5 2 6 13 13 19 24 15 20 16 22 46 52 43
33 17 21 43 35 26 19 18 19 33 25 15 17 14 15 16 17 14 15 8 15 11 14 12 10 5 7 15 20 2 7 7 3 9 9 8 33 13 30 35 37 33 58 61 47
30 9 29 52 24 16 30 15 15 18 57 14 9 18 22 19 15 17 26 23 40 29 21 16 11 12 26 3 4 5 20 24 10 13 13 5 33 4 17 23 48 50 60 56 45
24 29 23 63 16 25 10 14 30 15 21 19 23 17 13 15 10 23 30 21 48 26 23 18 8 4 13 3 4 12 13 20 2 4 44 16 29 1 2 14 42 48 64 53 38
27 9 26 55 50 21 27 28 27 37 45 20 15 15 11 17 26 15 10 10 28 25 26 41 13 17 33 26 11 13 17 19 34 26 40 55 73 57 25 16 14 33 52 45 41
47 22 33 14 38 40 26 16 46 31 26 58 31 40 27 26 29 30 17 2 3 12 14 17 27 18 43 40 9 30 48 25 44 54 38 77 64 60 52 26 40 72 60 51 41
46 27 27 10 26 49 55 69 53 23 24 43 47 30 49 48 44 32 45 14 20 4 15 7 17 11 30 19 16 40 55 47 50 61 53 71 78 79 66 21 30 51 60 51 42
78 72 62 40 24 30 57 67 56 44 47 61 44 40 44 55 83 89 43 31 23 28 25 18 12 8 40 7 7 28 54 52 43 49 41 45 75 62 37 16 33 52 67 59 43
Wind_Direction_850mb
11 12 11 11 14 18 19 19 17 17 17 19 18 72 74 61 58 80 65 58 50 36 21 23 13 13 26 23 42 67 60 29 334 142 159 132 112 66 116 116 77 114 120 124 134
358 2 4 5 6 8 12 14 13 11 12 15 15 45 86 50 52 60 56 54 47 37 28 29 23 28 32 4 19 78 101 207 352 136 154 127 144 150 105 100 99 107 119 140 180
348 351 352 357 358 1 4 4 5 4 4 7 13 41 82 37 21 34 54 60 48 31 22 22 11 16 32 340 355 89 167 191 112 127 163 164 129 155 136 187 179 156 145 168 172
333 340 343 344 349 353 355 356 355 353 353 355 7 30 67 77 136 82 62 61 41 27 16 7 11 12 37 341 341 347 296 224 173 179 157 163 168 84 225 152 161 163 172 173 161
315 322 329 334 337 341 346 348 351 346 341 344 352 346 229 204 165 180 135 50 34 17 4 6 26 13 7 329 332 176 316 320 247 207 133 164 199 151 133 145 156 165 173 170 143
299 307 314 320 326 329 334 338 341 341 336 334 335 317 237 233 209 204 218 265 1 355 1 7 19 1 323 300 318 314 290 291 289 272 182 139 170 141 174 162 162 176 184 192 170
296 298 303 310 316 321 324 330 333 334 327 326 319 287 249 263 204 197 193 239 326 344 350 357 353 0 310 314 312 304 326 322 249 205 208 127 326 229 188 176 175 181 183 182 175
296 297 300 304 310 316 321 324 329 326 316 309 310 269 253 225 207 207 214 274 312 321 325 329 336 11 167 295 349 5 56 349 281 177 203 158 257 236 184 180 183 180 177 172 170
294 297 300 305 310 314 319 322 328 320 305 300 291 249 249 222 223 227 245 278 295 288 303 296 341 61 77 68 5 5 245 234 310 211 136 185 263 222 185 191 188 189 183 179 172
290 295 300 305 310 314 320 326 325 304 233 316 238 264 228 227 219 236 247 254 257 273 301 306 53 54 26 72 258 252 284 274 241 265 199 249 261 190 195 198 198 196 191 188 178
284 289 294 300 307 315 324 348 350 276 219 279 260 248 259 247 265 255 233 228 194 236 23 349 61 243 250 211 198 209 236 230 254 255 223 233 246 206 201 207 209 203 195 191 188
279 285 288 292 299 309 323 347 343 310 297 271 260 260 257 259 256 218 212 195 174 200 102 5 255 226 186 225 238 232 261 265 285 240 210 269 248 227 192 210 210 200 195 191 187
271 276 279 285 289 294 287 310 323 329 286 281 245 251 231 217 222 210 200 186 166 165 201 170 256 119 171 232 257 231 213 252 241 337 290 284 248 242 219 220 213 206 199 197 194
263 266 271 275 284 257 266 292 312 336 48 265 236 214 189 189 255 196 193 193 188 194 192 231 258 186 221 232 174 276 227 256 281 355 260 348 294 258 193 223 204 193 201 195 192
256 258 261 257 234 244 263 276 304 345 347 253 190 175 185 183 151 200 191 188 193 188 132 252 178 191 218 225 165 237 188 263 264 259 349 230 255 241 142 244 211 197 200 192 194
252 257 253 251 243 244 245 246 279 54 250 246 162 184 159 197 197 163 184 186 166 153 277 248 226 190 210 139 177 32 333 299 47 99 256 233 196 221 192 218 196 203 196 192 189
251 255 250 240 236 230 223 177 40 179 279 223 207 179 187 187 203 179 177 179 190 273 269 334 222 67 162 128 17 81 56 312 334 344 237 180 232 258 234 225 196 195 187 188 188
248 250 249 235 227 214 191 70 204 222 228 63 144 106 184 160 223 166 144 234 231 116 111 212 302 176 180 198 186 177 177 168 262 251 293 350 245 252 290 302 242 191 180 182 187
239 242 245 232 217 212 201 216 195 193 202 158 84 169 227 216 203 153 200 203 213 171 187 180 265 120 241 174 159 179 187 152 192 126 7 238 277 275 81 48 112 152 173 185 192
230 240 240 235 214 206 186 228 216 203 147 149 184 178 191 204 173 180 188 204 213 190 167 215 288 209 174 163 285 167 154 69 9 288 274 263 274 248 199 207 186 183 191 194 199
219 235 221 220 204 194 220 225 223 238 210 171 202 202 201 185 194 195 215 235 203 172 160 145 179 185 120 208 183 158 214 199 200 162 228 295 283 207 192 203 192 201 197 199 202
206 232 193 190 181 219 227 193 233 213 229 250 199 200 188 182 204 210 213 204 188 157 169 200 169 202 211 237 279 244 208 186 191 223 235 218 260 169 206 197 195 203 198 200 205
208 225 203 183 215 215 236 234 237 190 203 216 230 194 195 202 248 213 242 210 182 160 172 179 213 315 312 359 331 224 211 218 358 299 248 239 266 25 181 155 198 188 196 199 203
195 217 192 204 224 225 215 230 224 221 231 206 204 183 163 222 219 256 222 221 196 205 205 158 187 181 240 238 137 218 200 203 213 239 255 243 263 261 253 203 202 196 201 201 207
196 216 199 203 220 225 224 238 224 224 211 209 240 224 208 235 225 232 225 237 272 210 178 172 236 194 247 260 194 263 260 206 218 238 237 261 261 265 266 235 204 208 202 199 201
209 208 185 207 201 207 220 233 232 221 186 216 226 206 219 230 217 231 224 178 204 163 173 193 246 154 258 244 223 259 264 254 245 251 249 254 267 266 277 241 178 186 190 190 201
221 232 219 220 202 192 222 234 235 223 236 229 225 229 231 227 229 236 231 210 208 184 184 168 184 139 256 119 359 273 252 239 247 243 233 245 246 263 261 194 178 181 188 191 202